User: anonymous   Login
Location: Limoges
(45.8354°N, 1.2645°E)
Time: 12:19:46
(UTC+01:00)
Language:

Explorer 7 - Orbit

View from above orbital plane
View from above orbital plane
View from above satellite
View from above satellite

Ground track
Ground track

The orbit data is extracted from the following two-line orbital elements,

1 00022U 59009A   24052.87057390  .00006961  00000-0  43404-3 0  9999
2 00022  50.2773 248.0975 0116683  16.7968 343.6797 15.05080322671871
Epoch (UTC): 21 February 2024 20:53:37
Eccentricity: 0.0116683
inclination: 50.2773°
perigee height: 470 km
apogee height: 632 km
right ascension of ascending node: 248.0975°
argument of perigee: 16.7968°
revolutions per day: 15.05080322
mean anomaly at epoch: 343.6797°
orbit number at epoch: 67187

The dashed part of the orbit path shows where the satellite is in the earth's shadow,  

DLR